FENGYUN 1C DEB, 31817

Orbit data source: Space-Track

FENGYUN 1C DEB, 31817 is space debris in SSO originally from a launch on Mon, 10 May 1999 UTC launched from the Taiyaun Space Center, China (TSC). Fengyun 1C debris stems from the Chinese weather satellite Fengyun-1C, which was intentionally destroyed by a Chinese anti-satellite missile in 2007. This event dramatically increased the amount of space debris, with thousands of trackable fragments posing hazards to satellites and human spaceflight. The Fengyun 1C debris cloud has become a focal point in discussions about space sustainability and the need for international regulations to prevent the creation of new debris.

Loading next visibility...
Identifier
31817, 1999-025CHF
Orbit
SSO
Country
Flag of CNCN / PRC
Related business
Manufacturer
Unknown
Mission
Spacecraft
Bus & Motor
Unknown
Mass
Unknown
Launch date (UTC)
1999-05-10 (27 years ago)
Launch vehicle
Unknown
Launch site
Taiyaun Space Center, China (TSC)
Object type
Payload
Rocket body
Debris
Shape & HBR
Unknown shape, 0.1 m
Radar Cross Section
Small (<0.1 m²)

Expand to show TLE details & history
Last TLE update: 1 day ago

TLE from 1 day ago
0 FENGYUN 1C DEB
1 31817U 99025CHF 26166.32157274  .00003634  00000-0  62406-3 0  9994
2 31817  98.9151 183.8763 0057638 223.8803 135.7814 14.68318840741123
Epoch: 2026-06-15T07:43Z
TLE epoch observation values (Epoch: 2026-06-15T07:43:03.884Z)
Latitude
-0.00004°
Longitude
164.50049°
Altitude
698.633 km
Speed
7.491 km/s
True Right ascension
12h 15m 30s
True Declination
0° 00' 00"
Sunlit
Object was in daylight at epoch
Visualization orbit readout
Latitude
Unknown
Longitude
Unknown
Altitude
Unknown
Speed
Unknown
Apparent Right ascension
Unknown
Apparent Declination
Unknown
Sunlit
N/A
Visualization observer readout
Local Sidereal Time
23:26:50
Azimuth
Unknown
Elevation
Unknown
Doppler factor
Unknown
Orbital elements
Apogee altitude
704.131 km
Perigee altitude
622.958 km
Semi-major axis
7,041.681 km
Eccentricity
0.00576
Inclination
98.9151°
RAAN
183.8763°
Arg. of periapsis
223.8803°
True anomaly
136.23965°
Mean anomaly
135.7814°
Eccentric anomaly
136.01076°
Mean motion
3.67306 °/min
Orbital period
98.01 mins
BSTAR
0.00062406
Loading maneuver chart data...
Computing Atmospheric mass density...

Documentation

Showing up to 5 results
|